Location: Carrières
(48.9495°N, 2.0407°E)
Time: 00:56:31
(UTC+00:00)

SL-08 R/B - Pass Details

Date: 28 January 2023
Orbit: 672 x 737 km, 98.5° (Epoch: 21 March)

Event Time Altitude Azimuth Distance (km) Brightness Sun altitude
Rises 17:18:37 0° 17° (NNE) 3,160 6.3 -6.3°
Reaches altitude 10° 17:20:55 10° 20° (NNE) 2,241 5.5 -6.7°
Maximum altitude 17:25:49 63° 102° (ESE) 826 3.5 -7.4°
Drops below altitude 10° 17:30:42 10° 183° (S) 2,240 6.2 -8.2°
Sets 17:33:00 0° 187° (S) 3,158 7.0 -8.5°
